Location: Running Springs
(34.2078°N, 117.1092°W)
Time: 21:01:57
(UTC+00:00)

Cosmos 1515 Rocket - Pass Details

Date: 13 April 2024
Orbit: 601 x 623 km, 82.5° (Epoch: 17 May)

Event Time Altitude Azimuth Distance (km) Brightness Sun altitude
Exits shadow 12:10:15 - 189° (S) 2,516 6.4 -14.4°
Reaches altitude 10° 12:11:33 10° 190° (S) 1,989 5.9 -14.2°
Maximum altitude 12:15:58 77° 277° (W) 645 3.5 -13.3°
Drops below altitude 10° 12:20:25 10° 3° (N) 2,005 6.5 -12.5°
Sets 12:22:39 0° 5° (N) 2,915 7.4 -12.0°
